Weather History for Piney Island, NC

Change the Weather History Date:

Saturday, November 3, 2012

  Actual Average (KMRH) Record (KMRH)
Temperature  
Mean Temperature 52 °F -  
Max Temperature 59 °F 74 °F 82 °F (1974)
Min Temperature 46 °F 51 °F 30 °F (1976)
Degree Days  
Heating Degree Days 14    
Growing Degree Days 2 (Base 50)    
Moisture  
Dew Point 39 °F    
Average Humidity 62    
Maximum Humidity 83    
Minimum Humidity 42    
Precipitation  
Precipitation 0.00 in - - ()
Sea Level Pressure  
Sea Level Pressure 30.04 in    
Wind  
Wind Speed 7 mph (NNW)    
Max Wind Speed 12 mph    
Max Gust Speed -    
Visibility 10 miles    
Events      
Averages and records for this station are not official NWS values.
T = Trace of Precipitation, MM = Missing Value Source: NWS Daily Summary

Daily Weather History Graph

Daily Weather History Graph

Search for Another Location

Airport:

Trip Planner

Search our weather history database for the weather conditions in past years. The results will help you decide how hot, cold, wet, or windy it might be!

Date:

Astronomy

Nov. 03, 2012 Rise Set
Actual Time 7:29 AM EDT 6:09 PM EDT
Civil Twilight 7:02 AM EDT 6:35 PM EDT
Nautical Twilight 6:32 AM EDT 7:05 PM EDT
Astronomical Twilight 6:03 AM EDT 7:35 PM EDT
Moon 9:51 PM EDT (11/3) 11:27 AM EDT (11/3)
Length of Visible Light 11h 32m
Length of Day
10h 39m
Waning Gibbous, 80% of the Moon is Illuminated
Nov 3
Waning Gibbous
Nov 6
Last Quarter
Nov 13
New
Nov 20
First Quarter
Nov 28
Full

Hourly Weather History & Observations

Time (EDT) Temp. Dew Point Humidity Pressure Visibility Wind Dir Wind Speed Gust Speed Precip Events Conditions
12:56 AM 48.9 °F 44.1 °F 83% 29.96 in 10.0 mi SSW 5.8 mph - N/A   Clear
1:56 AM 46.9 °F 42.1 °F 83% 29.97 in 10.0 mi SW 6.9 mph - N/A   Clear
2:56 AM 51.1 °F 42.1 °F 71% 29.97 in 10.0 mi West 6.9 mph - N/A   Clear
3:56 AM 48.9 °F 39.9 °F 71% 29.97 in 10.0 mi WNW 9.2 mph - N/A   Clear
4:56 AM 48.0 °F 39.9 °F 74% 29.98 in 10.0 mi NW 9.2 mph - N/A   Clear
5:56 AM 48.0 °F 41.0 °F 77% 30.00 in 10.0 mi North - - N/A   Clear
6:56 AM 48.0 °F 39.9 °F 74% 30.02 in 10.0 mi NNW 8.1 mph - N/A   Clear
7:56 AM 48.9 °F 42.1 °F 77% 30.04 in 10.0 mi NNW 6.9 mph - N/A   Clear
8:56 AM 53.1 °F 39.9 °F 61% 30.06 in 10.0 mi North 10.4 mph - N/A   Clear
9:56 AM 53.1 °F 37.9 °F 57% 30.07 in 10.0 mi North 11.5 mph - N/A   Clear
10:56 AM 53.1 °F 37.9 °F 57% 30.08 in 10.0 mi NNW 9.2 mph - N/A   Clear
11:56 AM 54.0 °F 37.0 °F 53% 30.07 in 10.0 mi NW 8.1 mph - N/A   Clear
12:56 PM 55.0 °F 36.0 °F 49% 30.06 in 10.0 mi NNW 5.8 mph - N/A   Clear
1:56 PM 55.9 °F 35.1 °F 45% 30.04 in 10.0 mi North 6.9 mph - N/A   Clear
2:56 PM 55.0 °F 37.0 °F 51% 30.04 in 10.0 mi ENE 5.8 mph - N/A   Clear
3:56 PM 57.9 °F 35.1 °F 42% 30.04 in 9.0 mi Variable 5.8 mph - N/A   Clear
4:56 PM 57.9 °F 36.0 °F 44% 30.05 in 10.0 mi WNW 10.4 mph - N/A   Clear
5:56 PM 55.0 °F 36.0 °F 49% 30.05 in 10.0 mi NW 8.1 mph - N/A   Clear
6:56 PM 53.1 °F 37.9 °F 57% 30.07 in 10.0 mi NW 4.6 mph - N/A   Clear
7:56 PM 54.0 °F 37.0 °F 53% 30.09 in 10.0 mi NW 5.8 mph - N/A   Clear
8:56 PM 54.0 °F 39.9 °F 59% 30.09 in 10.0 mi North 3.5 mph - N/A   Clear
9:56 PM 53.1 °F 42.1 °F 66% 30.09 in 10.0 mi ENE 3.5 mph - N/A   Clear
10:56 PM 52.0 °F 41.0 °F 66% 30.10 in 10.0 mi East 3.5 mph - N/A   Clear
11:56 PM 52.0 °F 41.0 °F 66% 30.09 in 10.0 mi Calm Calm - N/A   Clear